COSMOS 2557 (706K)

Last updated on Fri Nov 07 2025 00:02:36 GMT+0000 (Coordinated Universal Time)

1 52984U 22075A 25310.21008609 -.00000031 00000+0 00000+0 0 9994 2 52984 64.4292 322.3366 0013774 273.9862 85.8934 2.13101882 25966
UTC large
Height (km)
Speed (km/s)
/
Latitude / Longitude
Inclination (degrees)
Orbital Period (minutes)
Azimuth
Elevation
Range (km)
Doppler Factor

Next 0 passes for location: London (51.5072 / 0.1276)

Sorry there are no passes over London.